Flag for U.S.A. Weather past 2 weeks in Rochester, New York, U.S.A.

Now
62 °F

Clear.


Feels Like: 62 °F
Forecast: 61 / 76 °F
Wind: 5 mph from Southwest

Location: Greater Rochester International Airport

Current Time: Jul 5, 2015 at 12:35:26 AM

Latest Report: Jul 4, 2015 at 10:54 PM


Visibility: 10 mi

Pressure: 30.02 "Hg

Humidity: 83%

Dew point: 57 °F

Location of RochesterLocation

Historic Weather in Rochester — Graph

°F

Rochester temperature yesterday

Maximum temperature yesterday: 77 °F (at 1:54 PM)
Minimum temperature yesterday: 60 °F (at 4:54 AM)
Average temperature yesterday: 68 °F

Past Weeks' High & Low Weather Summary

 TemperatureHumidityPressure
High83 °F (Jun 22, 4:54 PM)97% (Jul 1, 4:54 AM)30.11 "Hg (Jul 1, 4:54 AM)
Low51 °F (Jun 20, 3:54 AM)31% (Jun 24, 4:54 PM)29.67 "Hg (Jun 23, 6:54 AM)
Average67 °F71%29.92 "Hg
* Reported Jun 19 10:54 PM — Jul 4 10:54 PM, Rochester, Weather by CustomWeather, © 2015

Note: Actual official high and low records may vary slightly from our data, if they occured in-between our weather recording intervals... More about our weather records

Advertising

Rochester weather history for previous 24 hours

 ConditionsComfort  
Time TempWeatherWind HumidityBarometerVisibility
10:54 PM
Sat, Jul 4
62 °FClear.5 mph83%30.02 "Hg10 mi
9:54 PM65 °FClear.3 mph73%30.00 "Hg10 mi
8:54 PM68 °FScattered clouds.3 mph63%29.98 "Hg10 mi
7:54 PM73 °FScattered clouds.3 mph46%29.97 "Hg10 mi
6:54 PM74 °FScattered clouds.5 mph45%29.96 "Hg10 mi
5:54 PM74 °FScattered clouds.9 mph45%29.96 "Hg10 mi
4:54 PM75 °FScattered clouds.9 mph47%29.95 "Hg10 mi
3:54 PM75 °FScattered clouds.12 mph50%29.95 "Hg10 mi
2:54 PM76 °FScattered clouds.9 mph58%29.94 "Hg10 mi
1:54 PM77 °FBroken clouds.8 mph60%29.93 "Hg10 mi
12:54 PM76 °FBroken clouds.No wind62%29.93 "Hg10 mi
11:54 AM72 °FMostly cloudy.No wind66%29.94 "Hg10 mi
10:54 AM71 °FMostly cloudy.5 mph68%29.93 "Hg10 mi
9:54 AM69 °FMore clouds than sun.3 mph66%29.93 "Hg10 mi
8:54 AM65 °FOvercast.No wind73%29.94 "Hg10 mi
7:54 AM61 °FOvercast.No wind78%29.92 "Hg10 mi
6:54 AM60 °FMore clouds than sun.3 mph83%29.91 "Hg10 mi
5:54 AM60 °FOvercast.No wind78%29.90 "Hg10 mi
4:54 AM60 °FPassing clouds.3 mph78%29.90 "Hg10 mi
3:54 AM62 °FPassing clouds.No wind67%29.89 "Hg10 mi
2:54 AM63 °FPassing clouds.No wind58%29.90 "Hg10 mi
1:54 AM63 °FMostly cloudy.6 mph56%29.91 "Hg10 mi
12:54 AM64 °FOvercast.5 mph50%29.93 "Hg10 mi
Weather by CustomWeather, © 2015

See weather overviewHow to use our weather pages